Home > Weather > Hemer > Past weeks

Flag for Germany Past Weather in Hemer, North Rhine-Westphalia, Germany — Yesterday and Last 2 Weeks

Now
48 °F

Drizzle. Partly sunny.


Feels Like: 48 °F
Forecast: 46 / 66 °F
Wind: No wind

Location: Dortmund / Wickede

Current Time: May 25, 2016 at 7:23:27 AM

Latest Report: May 25, 2016 at 6:50 AM


Visibility: 4 mi

Pressure: 29.98 "Hg

Humidity: 87%

Dew Point: 45 °F

Location of HemerLocation

Past Weather in Hemer — Graph

°F

Hemer Temperature Yesterday

Maximum temperature yesterday: 52 °F (at 2:20 PM)
Minimum temperature yesterday: 46 °F (at 6:50 AM)
Average temperature yesterday: 50 °F

High & Low Weather Summary for the Past Weeks

 TemperatureHumidityPressure
High75 °F (May 10, 2:50 PM)94% (May 23, 6:50 PM)30.12 "Hg (May 23, 6:50 PM)
Low39 °F (May 15, 5:20 AM)27% (May 10, 2:50 PM)29.50 "Hg (May 12, 1:50 PM)
Average58 °F61%29.87 "Hg
* Reported May 10 5:20 AM — May 25 5:50 AM, Hemer, Weather by CustomWeather, © 2016

Note: Actual official high and low records may vary slightly from our data, if they occured in-between our weather recording intervals... More about our weather records

Advertising

Hemer Weather History for the Previous 24 Hours

Scroll right to see more
 ConditionsComfort  
Time TempWeatherWind HumidityBarometerVisibility
5:50 AM
Wed, May 25
48 °FPassing clouds.2 mph87%29.98 "Hg4 mi
5:20 AM48 °FPassing clouds.2 mph87%29.98 "Hg4 mi
9:50 PM
Tue, May 24
50 °FBroken clouds.1 mph82%30.01 "HgN/A
9:20 PM50 °FBroken clouds.3 mph82%30.01 "HgN/A
8:50 PM50 °FPartly sunny.3 mph82%30.01 "HgN/A
8:20 PM50 °FBroken clouds.3 mph82%30.01 "HgN/A
7:50 PM50 °FBroken clouds.3 mph82%30.01 "HgN/A
7:20 PM50 °FScattered clouds.5 mph82%30.01 "HgN/A
6:50 PM52 °FBroken clouds.6 mph77%30.01 "HgN/A
6:20 PM52 °FPartly sunny.5 mph77%29.98 "HgN/A
5:50 PM52 °FBroken clouds.7 mph77%30.01 "HgN/A
5:20 PM52 °FPartly sunny.6 mph77%30.01 "HgN/A
4:50 PM52 °FBroken clouds.5 mph82%30.01 "HgN/A
4:20 PM52 °FPartly sunny.6 mph77%30.01 "HgN/A
3:50 PM52 °FPartly sunny.6 mph77%30.01 "HgN/A
3:20 PM52 °FPartly sunny.5 mph77%30.01 "HgN/A
2:50 PM50 °FPartly sunny.5 mph76%30.01 "HgN/A
2:20 PM52 °FPartly sunny.6 mph77%30.01 "HgN/A
1:50 PM50 °FPartly sunny.6 mph82%30.01 "HgN/A
1:20 PM50 °FPartly sunny.6 mph82%30.01 "HgN/A
12:50 PM50 °FPartly sunny.6 mph76%30.01 "HgN/A
12:20 PM50 °FPartly sunny.7 mph82%30.01 "HgN/A
11:50 AM50 °FPartly sunny.6 mph82%30.01 "HgN/A
11:20 AM48 °FPartly sunny.6 mph87%30.01 "HgN/A
10:50 AM48 °FPartly sunny.6 mph82%30.01 "HgN/A
10:20 AM48 °FPartly sunny.6 mph82%30.01 "HgN/A
9:50 AM48 °FPartly sunny.5 mph82%30.01 "HgN/A
9:20 AM48 °FPartly sunny.6 mph82%30.01 "HgN/A
8:50 AM46 °FPartly sunny.6 mph87%30.01 "HgN/A
8:20 AM46 °FPartly sunny.3 mph87%30.01 "HgN/A
7:50 AM46 °FPartly sunny.5 mph87%30.01 "HgN/A
7:20 AM46 °FPartly sunny.7 mph87%30.01 "Hg4 mi
Weather by CustomWeather, © 2016

See weather overviewHow to use our weather pages